OH2NJR Weather Reports


time (UTC)temp
C
wind
direction
speed
KPH
gust
KPH
rain 1hr
cm
rain 24hr
cm
rain mn
cm
humidity
%
barometer
mb
20260902000553 14 319 1.6 4.8 0.00 0.00 0.00 98 1007.4
20260902000551 14 319 1.6 4.8 0.00 0.00 0.00 98 1007.4
20260902000548 14 319 1.6 4.8 0.00 0.00 0.00 98 1007.4
20260901234818 14 317 0.0 1.6 0.00 0.00 0.00 98 1007.4
20260901232828 14 325 1.6 3.2 0.00 0.00 0.00 98 1007.6
20260901230840 14 320 0.0 1.6 0.00 0.00 0.00 98 1007.5
20260901225229 14 334 1.6 3.2 0.00 0.00 0.00 98 1007.5
20260901223408 15 317 1.6 6.4 0.00 0.00 0.00 98 1007.6
20260901221428 15 127 0.0 3.2 0.00 0.00 0.00 98 1007.5
20260901215537 15 46 1.6 3.2 0.00 0.00 0.00 98 1007.4
20260901213728 15 65 1.6 3.2 0.00 0.00 0.00 98 1007.6
20260901212113 15 28 1.6 4.8 0.00 0.00 0.00 98 1007.6
20260901210520 -17 33 0.0 1.6 0.00 0.00 0.00 98 1007.5
20260901210518 15 33 0.0 1.6 0.00 0.00 0.00 98 1007.5
20260901204833 15 190 3.2 3.2 0.00 0.00 0.00 97 1007.7
20260901202938 15 189 1.6 3.2 0.00 0.00 0.00 96 1007.6
20260901202933 15 189 1.6 3.2 0.00 0.00 0.00 96 1007.6
20260901201213 15 188 1.6 3.2 0.00 0.00 0.00 96 1007.6
20260901195338 15 32 1.6 3.2 0.00 0.00 0.00 95 1007.7
20260901193438 15 133 1.6 3.2 0.00 0.00 0.00 95 1007.7
20260901191555 16 179 1.6 9.7 0.00 0.00 0.00 94 1007.7
20260901191553 16 179 1.6 9.7 0.00 0.00 0.00 94 1007.7
20260901185723 16 207 1.6 6.4 0.00 0.00 0.00 94 1007.7
20260901184036 16 186 3.2 4.8 0.00 0.00 0.00 93 1007.8
20260901182037 16 176 1.6 4.8 0.00 0.00 0.00 92 1007.7
20260901180428 16 168 1.6 6.4 0.00 0.00 0.00 92 1007.7
20260901174708 16 188 1.6 3.2 0.00 0.00 0.00 92 1007.7
20260901173106 16 211 3.2 6.4 0.00 0.00 0.00 92 1007.8
20260901171243 16 197 4.8 11.3 0.00 0.00 0.00 92 1007.8
20260901165553 17 183 4.8 8.0 0.00 0.00 0.00 89 1007.8
20260901163813 17 175 4.8 9.7 0.00 0.00 0.00 86 1007.9
20260901161908 17 103 9.7 9.7 0.00 0.00 0.00 85 1008.0
20260901161903 17 195 4.8 9.7 0.00 0.00 0.00 85 1008.0
20260901160213 17 188 4.8 11.3 0.00 0.00 0.00 88 1008.0
20260901154433 17 217 3.2 8.0 0.00 0.00 0.00 86 1008.0
20260901154428 17 217 3.2 8.0 0.00 0.00 0.00 86 1008.0
20260901152743 17 184 4.8 8.0 0.00 0.00 0.00 85 1008.1
20260901151050 18 207 3.2 9.7 0.00 0.00 0.00 82 1008.1
20260901145418 17 198 6.4 9.7 0.00 0.00 0.00 83 1008.0
20260901143722 17 197 3.2 6.4 0.00 0.00 0.00 82 1008.2
20260901141755 18 145 3.2 6.4 0.00 0.00 0.00 80 1008.2
20260901141748 18 145 3.2 6.4 0.00 0.00 0.00 80 1008.2
20260901140033 18 181 3.2 11.3 0.00 0.00 0.00 75 1008.3
20260901134058 18 192 3.2 8.0 0.00 0.00 0.00 76 1008.3
20260901132221 18 84 1.6 3.2 0.00 0.00 0.00 74 1008.2
20260901132218 18 84 1.6 3.2 0.00 0.00 0.00 74 1008.2
20260901130458 18 215 3.2 11.3 0.00 0.00 0.00 76 1008.2
20260901124710 17 123 1.6 6.4 0.00 0.00 0.00 82 1008.6
20260901122713 17 183 3.2 6.4 0.00 0.00 0.00 81 1008.8
20260901121028 17 191 4.8 12.9 0.00 0.00 0.00 82 1008.8
20260901115353 17 200 8.0 17.7 0.00 0.00 0.00 82 1008.8
20260901113552 17 136 3.2 11.3 0.00 0.00 0.00 84 1008.7
20260901111923 17 180 3.2 8.0 0.00 0.00 0.00 84 1008.8
20260901110003 17 191 6.4 9.7 0.00 0.00 0.00 83 1008.7
20260901104103 17 201 4.8 11.3 0.00 0.00 0.00 84 1008.6
20260901102253 17 197 9.7 17.7 0.00 0.00 0.00 85 1008.6
20260901100633 16 203 11.3 22.5 0.00 0.00 0.00 85 1008.5
20260901094908 17 179 4.8 11.3 0.00 0.00 0.00 84 1008.4
20260901093113 17 199 6.4 12.9 0.00 0.00 0.00 83 1008.4
20260901091202 16 193 3.2 14.5 0.00 0.00 0.00 86 1008.3
20260901085513 16 210 1.6 3.2 0.00 0.00 0.00 89 1008.2
20260901085511 16 210 1.6 3.2 0.00 0.00 0.00 89 1008.2
20260901083618 16 120 1.6 6.4 0.00 0.03 0.00 89 1008.2
20260901082003 16 197 4.8 12.9 0.00 0.03 0.00 90 1008.1
20260901080323 16 187 3.2 6.4 0.00 0.10 0.00 91 1008.2
20260901074348 16 180 4.8 11.3 0.00 0.18 0.00 89 1008.2
20260901072643 17 175 1.6 3.2 0.00 0.18 0.00 89 1008.2
20260901070728 16 173 0.0 3.2 0.00 0.18 0.00 91 1008.0
20260901065049 16 200 3.2 8.0 0.00 0.18 0.00 91 1008.0
20260901063103 16 190 3.2 6.4 0.00 0.20 0.00 91 1008.0
20260901061103 16 62 0.0 3.2 0.00 0.30 0.00 92 1008.2
20260901055458 16 187 1.6 4.8 0.00 0.38 0.00 92 1008.1
20260901053508 16 169 1.6 6.4 0.00 0.38 0.00 92 1008.0
20260901051842 16 42 0.0 3.2 0.00 0.38 0.00 93 1008.1
20260901045918 16 205 4.8 6.4 0.00 0.41 0.00 93 1008.0
20260901044046 16 62 1.6 3.2 0.00 0.43 0.00 93 1008.0
20260901042438 15 79 1.6 4.8 0.00 0.43 0.00 93 1008.0
20260901040648 15 35 3.2 6.4 0.00 0.43 0.00 93 1007.9
20260901034838 15 31 1.6 4.8 0.00 0.43 0.00 94 1007.9
20260901033148 15 122 1.6 3.2 0.00 0.43 0.00 94 1007.9
20260901031423 15 33 1.6 4.8 0.00 0.43 0.00 94 1007.9
20260901025528 15 151 1.6 6.4 0.00 0.43 0.00 94 1007.9
20260901023733 15 5 1.6 4.8 0.00 0.43 0.00 95 1007.9
20260901021813 15 15 1.6 4.8 0.00 0.43 0.00 95 1007.8
20260901015923 15 42 1.6 4.8 0.00 0.43 0.00 95 1007.7
20260901013948 15 36 1.6 4.8 0.00 0.43 0.00 95 1007.7
20260901012123 15 178 1.6 4.8 0.00 0.43 0.00 94 1007.8
20260901010508 15 111 1.6 6.4 0.00 0.43 0.00 94 1007.9
20260901004808 15 59 3.2 6.4 0.00 0.43 0.00 92 1008.2
20260901003057 15 51 3.2 6.4 0.00 0.43 0.00 92 1008.1
20260901001403 15 74 1.6 6.4 0.00 0.43 0.00 91 1008.1